| time (UTC) | temp F | wind direction | speed knots | gust knots | rain 1hr in | rain 24hr in | rain mn in | humidity % | barometer mb |
| 20260505002031 | 71 | 104 | 0.0 | 0.9 | 0.00 | 0.00 | 0.00 | 40 | 998.0 |
| 20260505001528 | 71 | 171 | 1.7 | 1.7 | 0.00 | 0.00 | 0.00 | 39 | 997.8 |
| 20260505001025 | 72 | 122 | 0.9 | 0.9 | 0.00 | 0.00 | 0.00 | 39 | 997.9 |
| 20260505000523 | 72 | 111 | 0.9 | 0.9 | 0.00 | 0.00 | 0.00 | 38 | 997.8 |
| 20260505000020 | 73 | 112 | 0.0 | 0.0 | 0.00 | 0.00 | 0.00 | 38 | 997.6 |
| 20260504235517 | 73 | 125 | 0.0 | 0.9 | 0.00 | 0.00 | 0.00 | 37 | 997.7 |
| 20260504235013 | 73 | 120 | 0.9 | 1.7 | 0.00 | 0.00 | 0.00 | 36 | 997.7 |
| 20260504234510 | 73 | 110 | 0.9 | 0.9 | 0.00 | 0.00 | 0.00 | 36 | 997.5 |
| 20260504234007 | 74 | 165 | 0.9 | 1.7 | 0.00 | 0.00 | 0.00 | 35 | 997.4 |
| 20260504233502 | 74 | 105 | 0.0 | 0.0 | 0.00 | 0.00 | 0.00 | 35 | 997.4 |
| 20260504233000 | 75 | 109 | 0.9 | 0.9 | 0.00 | 0.00 | 0.00 | 34 | 997.4 |
| 20260504232457 | 75 | 122 | 1.7 | 1.7 | 0.00 | 0.00 | 0.00 | 34 | 997.4 |
| 20260504231954 | 75 | 145 | 0.9 | 1.7 | 0.00 | 0.00 | 0.00 | 33 | 997.3 |
| 20260504231450 | 76 | 145 | 0.9 | 1.7 | 0.00 | 0.00 | 0.00 | 33 | 997.3 |
| 20260504230947 | 76 | 99 | 0.0 | 0.0 | 0.00 | 0.00 | 0.00 | 33 | 997.2 |
| 20260504230443 | 76 | 184 | 0.9 | 1.7 | 0.00 | 0.00 | 0.00 | 32 | 997.4 |
| 20260504225943 | 76 | 137 | 2.6 | 2.6 | 0.00 | 0.00 | 0.00 | 32 | 997.5 |
| 20260504225439 | 77 | 106 | 1.7 | 1.7 | 0.00 | 0.00 | 0.00 | 33 | 997.3 |
| 20260504224936 | 77 | 199 | 1.7 | 2.6 | 0.00 | 0.00 | 0.00 | 33 | 997.2 |
| 20260504224432 | 77 | 104 | 0.0 | 0.9 | 0.00 | 0.00 | 0.00 | 32 | 997.3 |
| 20260504223930 | 77 | 106 | 1.7 | 2.6 | 0.00 | 0.00 | 0.00 | 32 | 997.2 |
| 20260504223425 | 77 | 291 | 4.3 | 7.0 | 0.00 | 0.00 | 0.00 | 30 | 997.4 |
| 20260504222921 | 79 | 219 | 2.6 | 4.3 | 0.00 | 0.00 | 0.00 | 30 | 997.3 |
| 20260504222419 | 79 | 204 | 1.7 | 2.6 | 0.00 | 0.00 | 0.00 | 29 | 997.2 |
| 20260504221917 | 79 | 143 | 1.7 | 1.7 | 0.00 | 0.00 | 0.00 | 31 | 997.4 |
| 20260504221413 | 79 | 71 | 0.9 | 0.9 | 0.00 | 0.00 | 0.00 | 31 | 997.3 |
| 20260504220910 | 79 | 73 | 0.9 | 0.9 | 0.00 | 0.00 | 0.00 | 30 | 997.3 |
| 20260504220407 | 79 | 98 | 0.9 | 0.9 | 0.00 | 0.00 | 0.00 | 30 | 997.5 |
| 20260504215904 | 79 | 95 | 0.9 | 0.9 | 0.00 | 0.00 | 0.00 | 29 | 997.5 |
| 20260504215401 | 79 | 126 | 0.9 | 0.9 | 0.00 | 0.00 | 0.00 | 31 | 997.4 |
| 20260504214857 | 79 | 133 | 1.7 | 1.7 | 0.00 | 0.00 | 0.00 | 29 | 997.7 |
| 20260504214354 | 80 | 194 | 1.7 | 2.6 | 0.00 | 0.00 | 0.00 | 30 | 997.5 |
| 20260504213851 | 80 | 107 | 0.9 | 1.7 | 0.00 | 0.00 | 0.00 | 29 | 997.6 |
| 20260504213346 | 79 | 120 | 0.9 | 1.7 | 0.00 | 0.00 | 0.00 | 30 | 997.7 |
| 20260504212844 | 80 | 175 | 3.5 | 6.1 | 0.00 | 0.00 | 0.00 | 30 | 997.6 |
| 20260504212340 | 79 | 112 | 0.9 | 1.7 | 0.00 | 0.00 | 0.00 | 30 | 997.5 |
| 20260504211838 | 79 | 46 | 1.7 | 1.7 | 0.00 | 0.00 | 0.00 | 30 | 997.5 |
| 20260504211333 | 80 | 107 | 2.6 | 2.6 | 0.00 | 0.00 | 0.00 | 32 | 997.2 |
| 20260504210831 | 80 | 103 | 2.6 | 2.6 | 0.00 | 0.00 | 0.00 | 31 | 997.4 |
| 20260504210328 | 80 | 150 | 0.9 | 2.6 | 0.00 | 0.00 | 0.00 | 31 | 997.6 |
| 20260504205825 | 79 | 247 | 5.2 | 7.0 | 0.00 | 0.00 | 0.00 | 31 | 997.6 |
| 20260504205323 | 79 | 124 | 1.7 | 2.6 | 0.00 | 0.00 | 0.00 | 30 | 997.8 |
| 20260504204821 | 79 | 258 | 10.4 | 13.9 | 0.00 | 0.00 | 0.00 | 30 | 997.7 |
| 20260504204319 | 80 | 96 | 2.6 | 2.6 | 0.00 | 0.00 | 0.00 | 30 | 997.8 |
| 20260504203818 | 78 | 182 | 2.6 | 2.6 | 0.00 | 0.00 | 0.00 | 32 | 998.0 |
| 20260504203315 | 79 | 194 | 3.5 | 5.2 | 0.00 | 0.00 | 0.00 | 32 | 997.8 |
| 20260504202810 | 80 | 211 | 1.7 | 1.7 | 0.00 | 0.00 | 0.00 | 30 | 998.0 |
| 20260504202308 | 80 | 112 | 3.5 | 7.0 | 0.00 | 0.00 | 0.00 | 30 | 998.1 |
| 20260504201804 | 80 | 122 | 1.7 | 2.6 | 0.00 | 0.00 | 0.00 | 32 | 998.0 |
| 20260504201302 | 80 | 231 | 2.6 | 2.6 | 0.00 | 0.00 | 0.00 | 31 | 997.9 |
| 20260504200759 | 79 | 125 | 0.9 | 0.9 | 0.00 | 0.00 | 0.00 | 32 | 998.1 |
| 20260504200255 | 80 | 112 | 0.9 | 0.9 | 0.00 | 0.00 | 0.00 | 32 | 998.1 |
| 20260504195752 | 80 | 203 | 2.6 | 2.6 | 0.00 | 0.00 | 0.00 | 31 | 998.3 |
| 20260504195248 | 80 | 108 | 0.9 | 0.9 | 0.00 | 0.00 | 0.00 | 32 | 998.3 |
| 20260504194745 | 80 | 109 | 1.7 | 2.6 | 0.00 | 0.00 | 0.00 | 32 | 998.1 |
| 20260504194241 | 80 | 86 | 1.7 | 2.6 | 0.00 | 0.00 | 0.00 | 31 | 998.2 |
| 20260504193737 | 79 | 85 | 0.9 | 0.9 | 0.00 | 0.00 | 0.00 | 34 | 998.3 |
| 20260504193235 | 80 | 99 | 0.9 | 0.9 | 0.00 | 0.00 | 0.00 | 32 | 998.3 |
| 20260504192733 | 79 | 48 | 1.7 | 2.6 | 0.00 | 0.00 | 0.00 | 33 | 998.5 |
| 20260504192231 | 80 | 221 | 3.5 | 5.2 | 0.00 | 0.00 | 0.00 | 32 | 998.5 |
| 20260504191729 | 80 | 97 | 0.0 | 0.0 | 0.00 | 0.00 | 0.00 | 32 | 998.5 |
| 20260504191226 | 79 | 110 | 0.0 | 0.9 | 0.00 | 0.00 | 0.00 | 32 | 998.6 |
| 20260504190721 | 78 | 158 | 1.7 | 4.3 | 0.00 | 0.00 | 0.00 | 34 | 998.7 |
| 20260504190218 | 78 | 23 | 0.9 | 1.7 | 0.00 | 0.00 | 0.00 | 33 | 998.6 |
| 20260504185714 | 78 | 331 | 1.7 | 1.7 | 0.00 | 0.00 | 0.00 | 33 | 998.6 |
| 20260504185211 | 77 | 108 | 1.7 | 2.6 | 0.00 | 0.00 | 0.00 | 34 | 998.9 |
| 20260504184707 | 78 | 153 | 1.7 | 1.7 | 0.00 | 0.00 | 0.00 | 34 | 998.7 |
| 20260504184203 | 78 | 97 | 1.7 | 1.7 | 0.00 | 0.00 | 0.00 | 34 | 998.9 |
| 20260504183659 | 78 | 228 | 2.6 | 5.2 | 0.00 | 0.00 | 0.00 | 35 | 999.0 |
| 20260504183156 | 78 | 107 | 0.0 | 0.9 | 0.00 | 0.00 | 0.00 | 34 | 999.0 |
| 20260504182654 | 78 | 119 | 1.7 | 1.7 | 0.00 | 0.00 | 0.00 | 33 | 999.0 |
| 20260504182151 | 77 | 89 | 2.6 | 4.3 | 0.00 | 0.00 | 0.00 | 36 | 999.2 |
| 20260504181649 | 77 | 77 | 0.9 | 1.7 | 0.00 | 0.00 | 0.00 | 34 | 999.0 |
| 20260504181146 | 78 | 42 | 1.7 | 2.6 | 0.00 | 0.00 | 0.00 | 33 | 999.2 |
| 20260504180645 | 78 | 36 | 5.2 | 7.8 | 0.00 | 0.00 | 0.00 | 33 | 999.0 |
| 20260504180143 | 79 | 185 | 2.6 | 5.2 | 0.00 | 0.00 | 0.00 | 32 | 999.0 |
| 20260504175640 | 79 | 101 | 1.7 | 1.7 | 0.00 | 0.00 | 0.00 | 33 | 999.2 |
| 20260504175137 | 78 | 252 | 4.3 | 5.2 | 0.00 | 0.00 | 0.00 | 32 | 999.1 |
| 20260504174636 | 75 | 56 | 0.9 | 0.9 | 0.00 | 0.00 | 0.00 | 34 | 999.4 |
| 20260504174131 | 76 | 125 | 6.1 | 7.8 | 0.00 | 0.00 | 0.00 | 35 | 999.5 |
| 20260504173629 | 76 | 134 | 2.6 | 2.6 | 0.00 | 0.00 | 0.00 | 36 | 999.6 |
| 20260504173126 | 77 | 98 | 0.9 | 1.7 | 0.00 | 0.00 | 0.00 | 34 | 999.4 |
| 20260504172622 | 74 | 88 | 2.6 | 2.6 | 0.00 | 0.00 | 0.00 | 35 | 999.4 |
| 20260504172119 | 76 | 231 | 8.7 | 8.7 | 0.00 | 0.00 | 0.00 | 33 | 999.5 |
| 20260504171616 | 75 | 141 | 1.7 | 1.7 | 0.00 | 0.00 | 0.00 | 36 | 999.5 |
| 20260504171113 | 76 | 122 | 3.5 | 4.3 | 0.00 | 0.00 | 0.00 | 34 | 999.6 |
| 20260504170609 | 77 | 202 | 3.5 | 5.2 | 0.00 | 0.00 | 0.00 | 34 | 999.8 |
| 20260504170107 | 75 | 108 | 1.7 | 2.6 | 0.00 | 0.00 | 0.00 | 37 | 999.8 |
| 20260504150952 | 70 | 135 | 4.3 | 5.2 | 0.00 | 0.00 | 0.00 | 46 | 1001.1 |
| 20260504150449 | 71 | 87 | 0.9 | 1.7 | 0.00 | 0.00 | 0.00 | 43 | 1001.0 |
| 20260504140916 | 65 | 105 | 1.7 | 1.7 | 0.00 | 0.00 | 0.00 | 58 | 1000.9 |
| 20260504140412 | 65 | 126 | 3.5 | 5.2 | 0.00 | 0.00 | 0.00 | 59 | 1001.1 |
| 20260504130337 | 60 | 134 | 0.9 | 0.9 | 0.00 | 0.00 | 0.00 | 69 | 1001.3 |
| 20260504120300 | 54 | 90 | 0.9 | 0.9 | 0.00 | 0.00 | 0.00 | 77 | 1000.8 |
| 20260504110224 | 45 | 87 | 0.0 | 0.0 | 0.00 | 0.00 | 0.00 | 89 | 1000.9 |
| 20260504100148 | 44 | 90 | 0.0 | 0.0 | 0.00 | 0.00 | 0.00 | 91 | 1001.0 |
| 20260504090110 | 48 | 88 | 0.0 | 0.0 | 0.00 | 0.00 | 0.00 | 89 | 1000.5 |
| 20260504081541 | 49 | 89 | 0.0 | 0.0 | 0.00 | 0.00 | 0.00 | 84 | 1000.3 |
| 20260504081036 | 48 | 77 | 0.9 | 1.7 | 0.00 | 0.00 | 0.00 | 84 | 1000.4 |
| 20260504080533 | 49 | 81 | 0.0 | 0.0 | 0.00 | 0.00 | 0.00 | 84 | 1000.2 |
| 20260504050346 | 51 | 92 | 0.0 | 0.0 | 0.00 | 0.00 | 0.00 | 79 | 1000.7 |
| 20260504045843 | 50 | 92 | 0.0 | 0.0 | 0.00 | 0.00 | 0.00 | 80 | 1000.8 |
| 20260504045338 | 50 | 93 | 0.0 | 0.0 | 0.00 | 0.00 | 0.00 | 79 | 1000.8 |
| 20260504044835 | 50 | 97 | 0.0 | 0.0 | 0.00 | 0.00 | 0.00 | 78 | 1000.7 |
| 20260504044332 | 51 | 97 | 0.0 | 0.0 | 0.00 | 0.00 | 0.00 | 77 | 1000.8 |
| 20260504043830 | 52 | 97 | 0.0 | 0.0 | 0.00 | 0.00 | 0.00 | 74 | 1000.8 |
| 20260504043326 | 53 | 97 | 0.0 | 0.0 | 0.00 | 0.00 | 0.00 | 73 | 1000.7 |
| 20260504042824 | 53 | 97 | 0.0 | 0.0 | 0.00 | 0.00 | 0.00 | 73 | 1000.9 |
| 20260504042320 | 53 | 97 | 0.0 | 0.0 | 0.00 | 0.00 | 0.00 | 74 | 1001.0 |
| 20260504041816 | 53 | 97 | 0.0 | 0.0 | 0.00 | 0.00 | 0.00 | 73 | 1001.0 |
| 20260504041313 | 53 | 97 | 0.0 | 0.0 | 0.00 | 0.00 | 0.00 | 75 | 1001.0 |
| 20260504040809 | 51 | 97 | 0.0 | 0.0 | 0.00 | 0.00 | 0.00 | 75 | 1001.0 |
| 20260504040307 | 50 | 97 | 0.0 | 0.0 | 0.00 | 0.00 | 0.00 | 77 | 1001.0 |
| 20260504035802 | 51 | 97 | 0.0 | 0.0 | 0.00 | 0.00 | 0.00 | 75 | 1001.0 |
| 20260504035300 | 51 | 97 | 0.0 | 0.0 | 0.00 | 0.00 | 0.00 | 74 | 1001.1 |
| 20260504034757 | 52 | 97 | 0.0 | 0.0 | 0.00 | 0.00 | 0.00 | 74 | 1001.2 |
| 20260504034254 | 52 | 97 | 0.0 | 0.0 | 0.00 | 0.00 | 0.00 | 74 | 1001.0 |
| 20260504033751 | 53 | 97 | 0.0 | 0.0 | 0.00 | 0.00 | 0.00 | 73 | 1001.2 |
| 20260504033249 | 52 | 97 | 0.0 | 0.0 | 0.00 | 0.00 | 0.00 | 75 | 1001.1 |
| 20260504032746 | 53 | 97 | 0.0 | 0.0 | 0.00 | 0.00 | 0.00 | 72 | 1001.2 |
| 20260504032243 | 54 | 97 | 0.0 | 0.0 | 0.00 | 0.00 | 0.00 | 71 | 1001.1 |
| 20260504031739 | 53 | 98 | 0.0 | 0.0 | 0.00 | 0.00 | 0.00 | 73 | 1001.1 |
| 20260504031237 | 52 | 98 | 0.0 | 0.0 | 0.00 | 0.00 | 0.00 | 74 | 1001.0 |
| 20260504030732 | 52 | 98 | 0.0 | 0.0 | 0.00 | 0.00 | 0.00 | 70 | 1001.2 |
| 20260504030230 | 53 | 98 | 0.0 | 0.0 | 0.00 | 0.00 | 0.00 | 69 | 1001.0 |
| 20260504025726 | 53 | 98 | 0.0 | 0.0 | 0.00 | 0.00 | 0.00 | 69 | 1001.0 |
| 20260504025223 | 53 | 98 | 0.0 | 0.0 | 0.00 | 0.00 | 0.00 | 70 | 1001.1 |
| 20260504024720 | 54 | 98 | 0.0 | 0.0 | 0.00 | 0.00 | 0.00 | 69 | 1000.8 |
| 20260504024217 | 55 | 98 | 0.0 | 0.0 | 0.00 | 0.00 | 0.00 | 64 | 1000.9 |
| 20260504023714 | 55 | 98 | 0.0 | 0.0 | 0.00 | 0.00 | 0.00 | 66 | 1000.7 |
| 20260504023209 | 55 | 98 | 0.0 | 0.0 | 0.00 | 0.00 | 0.00 | 66 | 1000.7 |
| 20260504022706 | 54 | 98 | 0.0 | 0.0 | 0.00 | 0.00 | 0.00 | 67 | 1000.6 |
| 20260504022202 | 54 | 98 | 0.0 | 0.0 | 0.00 | 0.00 | 0.00 | 64 | 1000.6 |
| 20260504021700 | 54 | 98 | 0.0 | 0.0 | 0.00 | 0.00 | 0.00 | 63 | 1000.5 |
| 20260504021156 | 54 | 98 | 0.0 | 0.0 | 0.00 | 0.00 | 0.00 | 63 | 1000.3 |
| 20260504020653 | 55 | 98 | 0.0 | 0.0 | 0.00 | 0.00 | 0.00 | 61 | 1000.5 |
| 20260504020149 | 57 | 98 | 0.0 | 0.0 | 0.00 | 0.00 | 0.00 | 59 | 1000.4 |
| 20260504015646 | 57 | 98 | 0.0 | 0.0 | 0.00 | 0.00 | 0.00 | 60 | 1000.6 |
| 20260504015143 | 57 | 98 | 0.0 | 0.0 | 0.00 | 0.00 | 0.00 | 59 | 1000.4 |
| 20260504014638 | 58 | 98 | 0.0 | 0.0 | 0.00 | 0.00 | 0.00 | 59 | 1000.2 |
| 20260504014136 | 57 | 98 | 0.0 | 0.0 | 0.00 | 0.00 | 0.00 | 59 | 1000.4 |
| 20260504013633 | 57 | 98 | 0.0 | 0.0 | 0.00 | 0.00 | 0.00 | 64 | 1000.1 |
| 20260504013130 | 56 | 98 | 0.0 | 0.0 | 0.00 | 0.00 | 0.00 | 60 | 1000.3 |
| 20260504012627 | 57 | 98 | 0.0 | 0.0 | 0.00 | 0.00 | 0.00 | 57 | 1000.3 |
| 20260504012125 | 58 | 98 | 0.0 | 0.0 | 0.00 | 0.00 | 0.00 | 60 | 1000.2 |
| 20260504011622 | 58 | 98 | 0.0 | 0.0 | 0.00 | 0.00 | 0.00 | 57 | 1000.2 |
| 20260504011118 | 59 | 98 | 0.0 | 0.0 | 0.00 | 0.00 | 0.00 | 54 | 999.9 |
| 20260504010614 | 59 | 98 | 0.0 | 0.0 | 0.00 | 0.00 | 0.00 | 54 | 999.9 |
| 20260504010110 | 59 | 98 | 0.0 | 0.0 | 0.00 | 0.00 | 0.00 | 54 | 999.7 |
| 20260504005607 | 58 | 98 | 0.0 | 0.0 | 0.00 | 0.00 | 0.00 | 55 | 1000.0 |
| 20260504005104 | 58 | 98 | 0.0 | 0.0 | 0.00 | 0.00 | 0.00 | 53 | 999.9 |
| 20260504004602 | 59 | 98 | 0.0 | 0.0 | 0.00 | 0.00 | 0.00 | 52 | 999.7 |
| 20260504004059 | 60 | 98 | 0.0 | 0.0 | 0.00 | 0.00 | 0.00 | 49 | 999.7 |
| 20260504003555 | 61 | 98 | 0.0 | 0.0 | 0.00 | 0.00 | 0.00 | 48 | 999.7 |
| 20260504003052 | 61 | 98 | 0.0 | 0.0 | 0.00 | 0.00 | 0.00 | 47 | 999.7 |
| 20260504002549 | 61 | 98 | 0.0 | 0.0 | 0.00 | 0.00 | 0.00 | 50 | 999.5 |